Reflectivity
-20 -20 -20 -20 -20 -20 -20 -20 -20 -20 -20 -20 -20 -20 -20 -20 -20 -20 -20 -20 -20 -20 -20 -20 -20 -20 -20
-20 -20 -20 -20 -20 -20 -20 -20 -20 -20 -20 -20 -20 -20 -20 -20 -20 -20 -20 -20 -20 -20 -20 -20 -20 -20 -20
-20 -20 -20 -20 -20 -20 -20 -20 -20 -20 -20 -20 -20 -20 -20 -20 -20 -20 -20 -20 -20 -20 -20 -20 -20 -20 -20
-20 -20 -20 -20 -20 -20 -20 -20 -20 -20 -20 -20 -20 -20 -20 -20 -20 -20 -20 -20 -20 -20 -20 -20 -20 -20 -20
-20 -20 -20 -20 -20 -20 -20 -20 -20 -20 -20 -20 -20 -20 -20 -20 -20 -20 -20 -20 -20 -20 -20 -20 -20 -20 -20
-20 -20 -20 -20 -20 -20 -20 -20 -20 -20 -20 -20 -20 -20 -20 -20 -20 -20 -20 -20 -20 -20 -20 -20 -20 -20 -20
-12 -20 -20 -20 -20 -20 -20 -20 -20 -20 -20 -20 -20 -20 -20 -20 -20 -20 -20 -20 -20 -20 -3 -8 -16 -20 -20
-20 -20 -20 -20 -20 -20 -20 -12 -14 -20 -20 -20 -20 -20 -20 -20 -20 -20 -20 -20 -20 -15 -20 -20 -20 -20 -20
-20 -7 -1 4 4 5 -20 -20 -20 -20 -20 -20 -20 -20 -20 -20 -20 -20 -20 -20 -20 -20 -20 -20 -20 -20 -20
-20 -20 -20 -20 -20 -20 -20 -20 -20 -20 -20 -20 -20 -12 -20 -20 -20 -20 -20 -20 -20 -20 -20 -20 -20 -20 -20
-4 -18 -20 -20 -20 -20 -20 -20 -20 -20 -20 -20 -20 -20 -9 -20 -20 -20 -20 -20 -20 -20 -20 -20 -20 -20 -12
-13 -20 -20 -20 -20 -20 -20 -20 -20 -20 -20 -20 -20 -20 -20 -20 -20 -20 -20 -20 -20 -20 -20 -20 -20 -20 -17
-20 -20 -20 -20 -20 -20 -20 -20 -20 -20 -20 -20 -20 -20 -8 -20 -20 -20 -20 -20 -20 -20 -20 -20 -20 -20 -20
-20 -20 -20 -20 -20 -20 -19 -20 -20 -20 -20 -20 -20 -20 -20 -20 -20 -20 -20 -20 -20 -20 -20 -20 -20 -20 -20
-20 -20 -20 -20 -20 -20 -20 -20 -20 -20 -20 -20 -20 -20 -20 -20 -20 -20 -20 -20 -20 -20 -20 -20 -20 -4 -9
-20 -20 -20 -20 -20 -20 -20 -20 -20 -20 -20 -20 -20 -20 -20 -20 -20 -20 -20 -20 -20 -20 -20 -20 -20 -20 -20
-20 -20 -20 -20 0 -14 -20 -20 -20 -20 -20 -20 -20 -20 -9 -20 -20 -20 -15 -20 -20 -20 -20 -20 -20 -20 -20
Wind_Speed
2 2 3 5 5 4 5 5 4 10 16 13 17 17 14 12 13 16 15 15 15 13 16 17 18 17 19
3 2 3 4 5 5 6 4 2 8 10 14 21 16 13 13 18 18 16 17 16 14 17 18 18 16 19
6 2 3 2 4 3 4 4 3 8 13 17 13 14 14 18 21 18 18 18 16 15 16 18 19 17 19
3 3 2 3 3 3 4 2 4 6 11 10 12 15 19 18 17 17 18 18 19 20 18 22 21 18 20
4 3 4 2 3 3 3 3 5 4 3 3 4 6 6 12 13 16 17 20 17 19 23 24 21 20 22
6 6 5 3 3 3 3 5 6 3 1 8 3 6 6 5 14 19 21 17 18 24 22 20 17 21 24
6 5 6 5 4 5 5 4 6 7 4 9 2 6 5 7 17 20 20 21 23 20 18 19 22 25 25
7 9 7 8 7 8 8 7 6 5 3 7 4 7 4 5 20 21 19 17 17 17 20 24 25 26 24
19 20 20 18 14 5 5 3 6 3 3 3 2 5 8 8 7 14 15 15 22 23 23 23 23 26 17
8 10 12 8 15 7 4 4 3 3 3 2 4 4 5 3 1 5 7 15 21 22 23 23 26 11 9
7 5 5 5 5 5 5 4 3 5 5 3 2 2 5 9 4 4 6 9 8 12 21 25 24 21 11
5 5 5 5 5 4 5 5 5 8 7 4 4 4 8 11 11 5 5 7 8 10 10 16 24 23 24
6 6 4 5 3 3 5 6 6 7 8 7 7 8 8 11 12 11 12 7 9 9 9 8 11 10 11
7 5 3 2 3 3 4 2 5 8 7 9 9 9 9 10 10 12 10 10 7 9 9 11 11 10 11
4 4 3 5 5 3 5 6 7 9 9 6 8 10 10 12 12 12 13 11 10 10 10 13 11 11 11
3 3 4 5 6 6 6 7 8 9 9 8 5 3 7 10 20 13 12 12 10 10 11 12 14 9 10
3 4 5 5 9 7 6 7 9 9 10 8 6 6 11 13 8 18 12 10 9 10 10 11 14 13 11
Wind_Direction
265 297 306 313 309 304 295 290 303 328 331 339 333 328 319 328 332 327 324 324 322 322 331 327 320 320 321
270 268 263 289 292 301 302 297 297 313 334 330 326 326 325 326 331 326 326 329 321 318 323 323 316 321 321
289 229 255 283 307 304 303 300 320 352 326 318 317 320 335 325 323 322 325 318 313 307 312 316 312 316 316
274 283 262 272 265 299 309 303 310 306 308 307 321 323 319 317 312 316 313 312 311 307 311 313 308 304 312
276 277 270 269 263 266 281 283 284 259 272 292 299 303 291 301 295 299 305 307 302 318 310 303 300 302 309
261 259 267 243 229 239 259 299 309 249 351 296 280 282 277 276 288 304 308 299 309 309 299 294 302 308 302
260 263 263 244 245 268 259 253 272 285 273 290 270 274 265 278 296 300 301 302 304 298 310 315 310 304 300
253 262 248 256 244 267 272 271 271 271 244 283 299 286 284 275 287 295 301 304 310 310 310 306 302 295 297
270 274 278 286 292 296 285 261 282 266 235 262 280 295 289 277 267 283 304 304 301 301 297 296 299 299 300
265 272 276 276 284 279 253 222 252 293 228 207 296 318 300 235 241 295 272 283 293 296 293 289 297 290 285
257 242 244 251 258 248 232 195 196 230 245 262 239 241 241 289 246 237 252 273 273 283 281 285 286 290 279
246 242 241 248 249 246 251 235 220 236 264 246 219 233 273 278 281 273 273 276 273 266 265 269 282 285 286
252 255 230 234 238 245 248 249 254 260 263 238 235 256 258 271 283 287 293 284 266 262 265 263 271 275 278
245 243 234 224 232 206 254 245 255 276 248 239 242 241 257 258 267 278 272 275 274 267 271 273 269 265 262
227 237 247 266 272 257 262 268 266 278 281 267 246 240 243 253 265 267 274 271 268 271 270 273 268 265 265
225 216 257 262 269 268 253 253 265 276 276 270 259 279 268 256 246 264 262 266 269 264 260 268 275 265 267
206 234 249 254 279 273 265 263 269 269 271 268 254 246 270 270 262 248 263 266 269 266 265 262 272 276 271